Time,TemperatureF,DewpointF,PressureIn,WindDirection,WindDirectionDegrees,WindSpeedMPH,WindSpeedGustMPH,Humidity,HourlyPrecipIn,Conditions,Clouds,dailyrainin,SolarRadiationWatts/m^2,SoftwareType,DateUTC
2013-05-04 00:01:00,34.0,20.0,-100.00,WNW,293,3.0,4.0,56,0.00,,,0.02,0.000000,,2013-05-04 06:01:00,
2013-05-04 00:11:00,34.0,20.0,-100.00,WNW,293,3.0,4.0,56,0.00,,,0.02,0.000000,,2013-05-04 06:11:00,
2013-05-04 00:21:00,34.0,20.0,-100.00,WNW,293,3.0,4.0,56,0.00,,,0.02,0.000000,,2013-05-04 06:21:00,
2013-05-04 00:42:00,32.0,18.0,-100.00,WNW,302,3.0,4.0,56,0.00,,,0.02,0.000000,,2013-05-04 06:42:00,
2013-05-04 00:52:00,32.0,18.0,-100.00,WNW,302,3.0,4.0,56,0.00,,,0.02,0.000000,,2013-05-04 06:52:00,
2013-05-04 01:01:00,32.0,18.0,-100.00,WNW,302,3.0,4.0,56,0.00,,,0.02,0.000000,,2013-05-04 07:01:00,
2013-05-04 01:11:00,32.0,18.0,-100.00,WNW,302,3.0,4.0,56,0.00,,,0.02,0.000000,,2013-05-04 07:11:00,
2013-05-04 01:21:00,32.0,18.0,-100.00,WNW,302,3.0,4.0,56,0.00,,,0.02,0.000000,,2013-05-04 07:21:00,
2013-05-04 01:42:00,30.0,19.0,-100.00,WNW,299,2.0,4.0,64,0.00,,,0.02,0.000000,,2013-05-04 07:42:00,
2013-05-04 01:52:00,30.0,19.0,-100.00,WNW,299,2.0,4.0,64,0.00,,,0.02,0.000000,,2013-05-04 07:52:00,
2013-05-04 02:01:00,30.0,19.0,-100.00,WNW,299,2.0,4.0,64,0.00,,,0.02,0.000000,,2013-05-04 08:01:00,
2013-05-04 02:11:00,30.0,19.0,-100.00,WNW,299,2.0,4.0,64,0.00,,,0.02,0.000000,,2013-05-04 08:11:00,
2013-05-04 02:21:00,30.0,19.0,-100.00,WNW,299,2.0,4.0,64,0.00,,,0.02,0.000000,,2013-05-04 08:21:00,
2013-05-04 02:42:00,29.0,19.0,-100.00,WNW,294,2.0,3.0,67,0.00,,,0.02,0.000000,,2013-05-04 08:42:00,
2013-05-04 02:52:00,29.0,19.0,-100.00,WNW,294,2.0,3.0,67,0.00,,,0.02,0.000000,,2013-05-04 08:52:00,
2013-05-04 03:02:00,29.0,19.0,-100.00,WNW,294,2.0,3.0,67,0.00,,,0.02,0.000000,,2013-05-04 09:02:00,
2013-05-04 03:11:00,29.0,19.0,-100.00,WNW,294,2.0,3.0,67,0.00,,,0.02,0.000000,,2013-05-04 09:11:00,
2013-05-04 03:21:00,29.0,19.0,-100.00,WNW,294,2.0,3.0,67,0.00,,,0.02,0.000000,,2013-05-04 09:21:00,
2013-05-04 03:42:00,28.0,19.0,-100.00,WNW,289,2.0,3.0,68,0.00,,,0.02,0.000000,,2013-05-04 09:42:00,
2013-05-04 03:53:00,28.0,19.0,-100.00,WNW,289,2.0,3.0,68,0.00,,,0.02,0.000000,,2013-05-04 09:53:00,
2013-05-04 04:03:00,28.0,19.0,-100.00,WNW,289,2.0,3.0,68,0.00,,,0.02,0.000000,,2013-05-04 10:03:00,
2013-05-04 04:12:00,28.0,19.0,-100.00,WNW,289,2.0,3.0,68,0.00,,,0.02,0.000000,,2013-05-04 10:12:00,
2013-05-04 04:22:00,28.0,19.0,-100.00,WNW,289,2.0,3.0,68,0.00,,,0.02,0.000000,,2013-05-04 10:22:00,
2013-05-04 04:42:00,27.0,18.0,-100.00,WNW,295,2.0,3.0,68,0.00,,,0.02,0.000000,,2013-05-04 10:42:00,
2013-05-04 04:53:00,27.0,18.0,-100.00,WNW,295,2.0,3.0,68,0.00,,,0.02,0.000000,,2013-05-04 10:53:00,
2013-05-04 05:02:00,27.0,18.0,-100.00,WNW,295,2.0,3.0,68,0.00,,,0.02,0.000000,,2013-05-04 11:02:00,
2013-05-04 05:11:00,27.0,18.0,-100.00,WNW,295,2.0,3.0,68,0.00,,,0.02,0.000000,,2013-05-04 11:11:00,
2013-05-04 05:21:00,27.0,18.0,-100.00,WNW,295,2.0,3.0,68,0.00,,,0.02,0.000000,,2013-05-04 11:21:00,
2013-05-04 05:23:00,27.0,19.0,-100.00,WNW,299,2.0,3.0,71,0.00,,,0.02,0.000000,,2013-05-04 11:23:00,
2013-05-04 05:46:00,27.0,19.0,-100.00,WNW,299,2.0,3.0,71,0.00,,,0.02,0.000000,,2013-05-04 11:46:00,
2013-05-04 06:03:00,27.0,19.0,-100.00,WNW,299,2.0,3.0,71,0.00,,,0.02,0.000000,,2013-05-04 12:03:00,
2013-05-04 06:13:00,27.0,19.0,-100.00,WNW,299,2.0,3.0,71,0.00,,,0.02,0.000000,,2013-05-04 12:13:00,
2013-05-04 06:42:00,27.0,18.0,-100.00,WNW,284,2.0,3.0,68,0.00,,,0.02,7.000000,,2013-05-04 12:42:00,
2013-05-04 06:52:00,27.0,18.0,-100.00,WNW,284,2.0,3.0,68,0.00,,,0.02,7.000000,,2013-05-04 12:52:00,
2013-05-04 07:01:00,27.0,18.0,-100.00,WNW,284,2.0,3.0,68,0.00,,,0.02,7.000000,,2013-05-04 13:01:00,
2013-05-04 07:11:00,27.0,18.0,-100.00,WNW,284,2.0,3.0,68,0.00,,,0.02,7.000000,,2013-05-04 13:11:00,
2013-05-04 07:21:00,27.0,18.0,-100.00,WNW,284,2.0,3.0,68,0.00,,,0.02,7.000000,,2013-05-04 13:21:00,
2013-05-04 07:42:00,37.0,18.0,-100.00,ENE,77,1.0,2.0,46,0.00,,,0.02,190.000000,,2013-05-04 13:42:00,
2013-05-04 07:52:00,37.0,18.0,-100.00,ENE,77,1.0,2.0,46,0.00,,,0.02,190.000000,,2013-05-04 13:52:00,
2013-05-04 08:02:00,37.0,18.0,-100.00,ENE,77,1.0,2.0,46,0.00,,,0.02,190.000000,,2013-05-04 14:02:00,
2013-05-04 08:11:00,37.0,18.0,-100.00,ENE,77,1.0,2.0,46,0.00,,,0.02,190.000000,,2013-05-04 14:11:00,
2013-05-04 08:21:00,37.0,18.0,-100.00,ENE,77,1.0,2.0,46,0.00,,,0.02,190.000000,,2013-05-04 14:21:00,
2013-05-04 08:42:00,38.0,20.0,-100.00,ESE,105,3.0,4.0,48,0.00,,,0.02,472.000000,,2013-05-04 14:42:00,
2013-05-04 08:52:00,38.0,20.0,-100.00,ESE,105,3.0,4.0,48,0.00,,,0.02,472.000000,,2013-05-04 14:52:00,
2013-05-04 09:02:00,38.0,20.0,-100.00,ESE,105,3.0,4.0,48,0.00,,,0.02,472.000000,,2013-05-04 15:02:00,
2013-05-04 09:12:00,38.0,20.0,-100.00,ESE,105,3.0,4.0,48,0.00,,,0.02,472.000000,,2013-05-04 15:12:00,
2013-05-04 09:22:00,38.0,20.0,-100.00,ESE,105,3.0,4.0,48,0.00,,,0.02,472.000000,,2013-05-04 15:22:00,
2013-05-04 09:43:00,42.0,21.0,-100.00,East,83,2.0,5.0,42,0.00,,,-99.99,719.000000,,2013-05-04 15:43:00,
2013-05-04 09:53:00,42.0,21.0,-100.00,East,83,2.0,5.0,42,0.00,,,-99.99,719.000000,,2013-05-04 15:53:00,
2013-05-04 10:03:00,42.0,21.0,-100.00,East,83,2.0,5.0,42,0.00,,,-99.99,719.000000,,2013-05-04 16:03:00,
2013-05-04 10:12:00,42.0,21.0,-100.00,East,83,2.0,5.0,42,0.00,,,-99.99,719.000000,,2013-05-04 16:12:00,
2013-05-04 10:22:00,42.0,21.0,-100.00,East,83,2.0,5.0,42,0.00,,,-99.99,719.000000,,2013-05-04 16:22:00,
2013-05-04 10:42:00,44.0,18.0,-100.00,East,97,3.0,6.0,35,0.00,,,0.00,922.000000,,2013-05-04 16:42:00,
2013-05-04 10:52:00,44.0,18.0,-100.00,East,97,3.0,6.0,35,0.00,,,0.00,922.000000,,2013-05-04 16:52:00,
2013-05-04 11:02:00,44.0,18.0,-100.00,East,97,3.0,6.0,35,0.00,,,0.00,922.000000,,2013-05-04 17:02:00,
2013-05-04 11:12:00,44.0,18.0,-100.00,East,97,3.0,6.0,35,0.00,,,0.00,922.000000,,2013-05-04 17:12:00,
2013-05-04 11:22:00,44.0,18.0,-100.00,East,97,3.0,6.0,35,0.00,,,0.00,922.000000,,2013-05-04 17:22:00,
2013-05-04 11:42:00,47.0,18.0,-100.00,SE,143,3.0,8.0,31,0.00,,,0.00,1086.000000,,2013-05-04 17:42:00,
2013-05-04 11:52:00,47.0,18.0,-100.00,SE,143,3.0,8.0,31,0.00,,,0.00,1086.000000,,2013-05-04 17:52:00,
2013-05-04 12:01:00,47.0,18.0,-100.00,SE,143,3.0,8.0,31,0.00,,,0.00,1086.000000,,2013-05-04 18:01:00,
2013-05-04 12:12:00,47.0,18.0,-100.00,SE,143,3.0,8.0,31,0.00,,,0.00,1086.000000,,2013-05-04 18:12:00,
2013-05-04 12:21:00,47.0,18.0,-100.00,SE,143,3.0,8.0,31,0.00,,,0.00,1086.000000,,2013-05-04 18:21:00,
2013-05-04 12:42:00,51.0,16.0,-100.00,East,94,3.0,6.0,25,0.00,,,0.00,1200.000000,,2013-05-04 18:42:00,
2013-05-04 12:52:00,51.0,16.0,-100.00,East,94,3.0,6.0,25,0.00,,,0.00,1200.000000,,2013-05-04 18:52:00,
2013-05-04 13:01:00,51.0,16.0,-100.00,East,94,3.0,6.0,25,0.00,,,0.00,1200.000000,,2013-05-04 19:01:00,
2013-05-04 13:11:00,51.0,16.0,-100.00,East,94,3.0,6.0,25,0.00,,,0.00,1200.000000,,2013-05-04 19:11:00,
2013-05-04 13:21:00,51.0,16.0,-100.00,East,94,3.0,6.0,25,0.00,,,0.00,1200.000000,,2013-05-04 19:21:00,
2013-05-04 13:42:00,53.0,15.0,-100.00,SE,129,3.0,7.0,22,0.00,,,0.00,962.000000,,2013-05-04 19:42:00,
2013-05-04 13:52:00,53.0,15.0,-100.00,SE,129,3.0,7.0,22,0.00,,,0.00,962.000000,,2013-05-04 19:52:00,
2013-05-04 14:02:00,53.0,15.0,-100.00,SE,129,3.0,7.0,22,0.00,,,0.00,962.000000,,2013-05-04 20:02:00,
2013-05-04 14:11:00,53.0,15.0,-100.00,SE,129,3.0,7.0,22,0.00,,,0.00,962.000000,,2013-05-04 20:11:00,
2013-05-04 14:22:00,53.0,15.0,-100.00,SE,129,3.0,7.0,22,0.00,,,0.00,962.000000,,2013-05-04 20:22:00,
2013-05-04 14:52:00,54.0,18.0,-100.00,SW,228,3.0,7.0,24,0.00,,,0.00,828.000000,,2013-05-04 20:52:00,
2013-05-04 15:02:00,54.0,18.0,-100.00,SW,228,3.0,7.0,24,0.00,,,0.00,828.000000,,2013-05-04 21:02:00,
2013-05-04 15:12:00,54.0,18.0,-100.00,SW,228,3.0,7.0,24,0.00,,,0.00,828.000000,,2013-05-04 21:12:00,
2013-05-04 15:22:00,54.0,18.0,-100.00,SW,228,3.0,7.0,24,0.00,,,0.00,828.000000,,2013-05-04 21:22:00,
2013-05-04 15:43:00,54.0,17.0,-100.00,ESE,110,3.0,7.0,23,0.00,,,-99.99,751.000000,,2013-05-04 21:43:00,
2013-05-04 15:53:00,54.0,17.0,-100.00,ESE,110,3.0,7.0,23,0.00,,,-99.99,751.000000,,2013-05-04 21:53:00,
2013-05-04 16:03:00,54.0,17.0,-100.00,ESE,110,3.0,7.0,23,0.00,,,-99.99,751.000000,,2013-05-04 22:03:00,
2013-05-04 16:12:00,54.0,17.0,-100.00,ESE,110,3.0,7.0,23,0.00,,,-99.99,751.000000,,2013-05-04 22:12:00,
2013-05-04 16:22:00,54.0,17.0,-100.00,ESE,110,3.0,7.0,23,0.00,,,-99.99,751.000000,,2013-05-04 22:22:00,
2013-05-04 16:42:00,51.0,22.0,-100.00,ENE,57,3.0,7.0,32,0.00,,,0.00,333.000000,,2013-05-04 22:42:00,
2013-05-04 16:52:00,51.0,22.0,-100.00,ENE,57,3.0,7.0,32,0.00,,,0.00,333.000000,,2013-05-04 22:52:00,
2013-05-04 17:02:00,51.0,22.0,-100.00,ENE,57,3.0,7.0,32,0.00,,,0.00,333.000000,,2013-05-04 23:02:00,
2013-05-04 17:12:00,51.0,22.0,-100.00,ENE,57,3.0,7.0,32,0.00,,,0.00,333.000000,,2013-05-04 23:12:00,
2013-05-04 17:21:00,51.0,22.0,-100.00,ENE,57,3.0,7.0,32,0.00,,,0.00,333.000000,,2013-05-04 23:21:00,
2013-05-04 17:42:00,46.0,24.0,-100.00,SE,130,4.0,9.0,42,0.00,,,0.00,88.000000,,2013-05-04 23:42:00,
2013-05-04 17:52:00,46.0,24.0,-100.00,SE,130,4.0,9.0,42,0.00,,,0.00,88.000000,,2013-05-04 23:52:00,
2013-05-04 18:02:00,46.0,24.0,-100.00,SE,130,4.0,9.0,42,0.00,,,0.00,88.000000,,2013-05-05 00:02:00,
2013-05-04 18:11:00,46.0,24.0,-100.00,SE,130,4.0,9.0,42,0.00,,,0.00,88.000000,,2013-05-05 00:11:00,
2013-05-04 18:21:00,46.0,24.0,-100.00,SE,130,4.0,9.0,42,0.00,,,0.00,88.000000,,2013-05-05 00:21:00,
2013-05-04 18:42:00,40.0,33.0,-100.00,NNW,334,3.0,10.0,76,0.00,,,0.00,92.000000,,2013-05-05 00:42:00,
2013-05-04 18:52:00,40.0,33.0,-100.00,NNW,334,3.0,10.0,76,0.00,,,0.00,92.000000,,2013-05-05 00:52:00,
2013-05-04 19:01:00,40.0,33.0,-100.00,NNW,334,3.0,10.0,76,0.00,,,0.00,92.000000,,2013-05-05 01:01:00,
2013-05-04 19:11:00,40.0,33.0,-100.00,NNW,334,3.0,10.0,76,0.00,,,0.00,92.000000,,2013-05-05 01:11:00,
2013-05-04 19:21:00,40.0,33.0,-100.00,NNW,334,3.0,10.0,76,0.00,,,0.00,92.000000,,2013-05-05 01:21:00,
2013-05-04 19:42:00,41.0,32.0,-100.00,SSE,166,1.0,4.0,69,0.00,,,0.00,65.000000,,2013-05-05 01:42:00,
2013-05-04 19:52:00,41.0,32.0,-100.00,SSE,166,1.0,4.0,69,0.00,,,0.00,65.000000,,2013-05-05 01:52:00,
2013-05-04 20:02:00,41.0,32.0,-100.00,SSE,166,1.0,4.0,69,0.00,,,0.00,65.000000,,2013-05-05 02:02:00,
2013-05-04 20:11:00,41.0,32.0,-100.00,SSE,166,1.0,4.0,69,0.00,,,0.00,65.000000,,2013-05-05 02:11:00,
2013-05-04 20:21:00,41.0,32.0,-100.00,SSE,166,1.0,4.0,69,0.00,,,0.00,65.000000,,2013-05-05 02:21:00,
2013-05-04 20:42:00,39.0,30.0,-100.00,ESE,111,2.0,5.0,71,0.00,,,0.00,8.000000,,2013-05-05 02:42:00,
2013-05-04 20:52:00,39.0,30.0,-100.00,ESE,111,2.0,5.0,71,0.00,,,0.00,8.000000,,2013-05-05 02:52:00,
2013-05-04 21:01:00,39.0,30.0,-100.00,ESE,111,2.0,5.0,71,0.00,,,0.00,8.000000,,2013-05-05 03:01:00,
2013-05-04 21:11:00,39.0,30.0,-100.00,ESE,111,2.0,5.0,71,0.00,,,0.00,8.000000,,2013-05-05 03:11:00,
2013-05-04 21:21:00,39.0,30.0,-100.00,ESE,111,2.0,5.0,71,0.00,,,0.00,8.000000,,2013-05-05 03:21:00,
2013-05-04 21:42:00,33.0,31.0,-100.00,ESE,121,5.0,11.0,92,0.00,,,-99.99,0.000000,,2013-05-05 03:42:00,
2013-05-04 21:53:00,33.0,31.0,-100.00,ESE,121,5.0,11.0,92,0.00,,,-99.99,0.000000,,2013-05-05 03:53:00,
2013-05-04 22:02:00,33.0,31.0,-100.00,ESE,121,5.0,11.0,92,0.00,,,-99.99,0.000000,,2013-05-05 04:02:00,
2013-05-04 22:12:00,33.0,31.0,-100.00,ESE,121,5.0,11.0,92,0.00,,,-99.99,0.000000,,2013-05-05 04:12:00,
2013-05-04 22:22:00,33.0,31.0,-100.00,ESE,121,5.0,11.0,92,0.00,,,-99.99,0.000000,,2013-05-05 04:22:00,
2013-05-04 22:43:00,32.0,32.0,-100.00,NW,319,1.0,4.0,98,0.00,,,0.00,0.000000,,2013-05-05 04:43:00,
2013-05-04 22:53:00,32.0,32.0,-100.00,NW,319,1.0,4.0,98,0.00,,,0.00,0.000000,,2013-05-05 04:53:00,
2013-05-04 23:02:00,32.0,32.0,-100.00,NW,319,1.0,4.0,98,0.00,,,0.00,0.000000,,2013-05-05 05:02:00,
2013-05-04 23:12:00,32.0,32.0,-100.00,NW,319,1.0,4.0,98,0.00,,,0.00,0.000000,,2013-05-05 05:12:00,
2013-05-04 23:21:00,32.0,32.0,-100.00,NW,319,1.0,4.0,98,0.00,,,0.00,0.000000,,2013-05-05 05:21:00,
2013-05-04 23:42:00,33.0,31.0,-100.00,WNW,303,3.0,4.0,94,0.00,,,0.00,0.000000,,2013-05-05 05:42:00,
2013-05-04 23:52:00,33.0,31.0,-100.00,WNW,303,3.0,4.0,94,0.00,,,0.00,0.000000,,2013-05-05 05:52:00,